Las Vegas, NM

7:20 PM MST on January 20, 2017 (GMT -0700)
Las Vegas Municipal

Weather History for KLVS - May, 2013

Change the Weather History Date:

Thursday, May 23, 2013

  Actual Average Record
Temperature  
Mean Temperature 64 °F -  
Max Temperature 80 °F 73 °F 91 °F (2000)
Min Temperature 48 °F 42 °F 32 °F (1988)
Degree Days  
Heating Degree Days 1    
Growing Degree Days 14 (Base 50)    
Moisture  
Dew Point 33 °F    
Average Humidity 39    
Maximum Humidity 94    
Minimum Humidity 12    
Precipitation  
Precipitation 0.06 in - - ()
Sea Level Pressure  
Sea Level Pressure 29.88 in    
Wind  
Wind Speed 10 mph (ESE)    
Max Wind Speed 26 mph    
Max Gust Speed 33 mph    
Visibility 9 miles    
Events Rain , Thunderstorm    
Averages and records for this station are not official NWS values.
T = Trace of Precipitation, MM = Missing Value Source: NWS Daily Summary

Daily Weather History Graph

Daily Weather History Graph

Search for Another Location

Airport or City:

Trip Planner

Search our weather history database for the weather conditions in past years. The results will help you decide how hot, cold, wet, or windy it might be!

Date:

Astronomy

May. 23, 2013 Rise Set
Actual Time 5:49 AM MDT 8:05 PM MDT
Civil Twilight 5:21 AM MDT 8:34 PM MDT
Nautical Twilight 4:45 AM MDT 9:09 PM MDT
Astronomical Twilight 4:06 AM MDT 9:48 PM MDT
Moon 6:42 PM MDT (5/23) 4:33 AM MDT (5/23)
Length of Visible Light 15h 13m
Length of Day
14h 15m
Waxing Gibbous, 97% of the Moon is Illuminated
May 23
Waxing Gibbous
May 24
Full
May 31
Last Quarter
Jun 8
New
Jun 16
First Quarter

Hourly Weather History & Observations

Time (MDT) Temp. Dew Point Humidity Pressure Visibility Wind Dir Wind Speed Gust Speed Precip Events Conditions
12:53 AM 59.0 °F 12.0 °F 16% 29.70 in 10.0 mi Calm Calm - N/A   Clear
1:53 AM 57.0 °F 12.9 °F 18% 29.70 in 10.0 mi NE 6.9 mph - N/A   Clear
2:53 AM 48.9 °F 12.0 °F 23% 29.73 in 10.0 mi NE 5.8 mph - N/A   Clear
3:53 AM 48.9 °F 15.1 °F 26% 29.75 in 10.0 mi North 5.8 mph - N/A   Clear
4:53 AM 48.9 °F 16.0 °F 27% 29.76 in 10.0 mi NNE 8.1 mph - N/A   Clear
5:53 AM 50.0 °F 16.0 °F 26% 29.78 in 10.0 mi NNE 5.8 mph - N/A   Clear
6:53 AM 53.1 °F 16.0 °F 23% 29.79 in 10.0 mi ENE 9.2 mph - N/A   Clear
7:53 AM 60.1 °F 21.0 °F 22% 29.81 in 10.0 mi East 15.0 mph - N/A   Clear
8:53 AM 64.9 °F 28.0 °F 25% 29.84 in 10.0 mi East 13.8 mph - N/A   Clear
9:53 AM 70.0 °F 27.0 °F 20% 29.83 in 10.0 mi East 12.7 mph - N/A   Clear
10:53 AM 73.0 °F 25.0 °F 17% 29.85 in 10.0 mi SSE 13.8 mph 21.9 mph N/A   Clear
11:53 AM 75.9 °F 24.1 °F 15% 29.83 in 10.0 mi SSE 17.3 mph 23.0 mph N/A   Clear
12:53 PM 78.1 °F 21.9 °F 12% 29.80 in 10.0 mi SSE 25.3 mph 32.2 mph N/A   Clear
1:53 PM 80.1 °F 21.9 °F 12% 29.79 in 10.0 mi South 21.9 mph 33.4 mph N/A   Clear
2:53 PM 79.0 °F 28.9 °F 16% 29.81 in 10.0 mi SE 21.9 mph 32.2 mph N/A   Clear
3:53 PM 75.9 °F 33.1 °F 21% 29.81 in 10.0 mi SSE 26.5 mph 32.2 mph N/A   Clear
4:53 PM 75.9 °F 30.0 °F 19% 29.80 in 10.0 mi SSE 20.7 mph 27.6 mph N/A   Clear
5:00 PM 75.2 °F 30.2 °F 19% 30.09 in 10.0 mi SSE 19.6 mph 27.6 mph N/A   Partly Cloudy
5:53 PM 75.9 °F 33.1 °F 21% 29.78 in 10.0 mi SE 19.6 mph - N/A   Clear
6:53 PM 73.9 °F 35.1 °F 24% 29.78 in 10.0 mi ESE 12.7 mph - N/A   Clear
7:53 PM 68.0 °F 37.9 °F 33% 29.81 in 10.0 mi East 10.4 mph - N/A   Clear
8:53 PM 63.0 °F 46.0 °F 54% 29.85 in 10.0 mi East 17.3 mph - N/A   Clear
9:42 PM 62.6 °F 50.0 °F 63% 30.20 in 10.0 mi East 13.8 mph - N/A   Overcast
9:53 PM 62.1 °F 52.0 °F 70% 29.86 in 10.0 mi East 16.1 mph - N/A   Overcast
10:23 PM 60.8 °F 55.4 °F 82% 30.16 in 7.0 mi SE 9.2 mph 23.0 mph 0.02 in Rain , Thunderstorm Light Thunderstorms and Rain
10:37 PM 57.2 °F 55.4 °F 94% 30.19 in 5.0 mi WNW 11.5 mph 29.9 mph 0.04 in Rain , Thunderstorm Light Thunderstorms and Rain
10:53 PM 60.1 °F 55.0 °F 83% 29.88 in 8.0 mi Variable 4.6 mph - 0.05 in Rain , Thunderstorm Light Thunderstorms and Rain
11:10 PM 60.8 °F 53.6 °F 77% 30.18 in 9.0 mi East 11.5 mph - 0.01 in Thunderstorm Thunderstorm
11:19 PM 59.0 °F 53.6 °F 82% 30.18 in 7.0 mi ESE 11.5 mph - 0.01 in   Overcast
11:36 PM 57.2 °F 50.0 °F 77% 30.18 in 8.0 mi SSE 10.4 mph - 0.01 in   Overcast
11:53 PM 55.9 °F 48.9 °F 77% 29.88 in 8.0 mi ESE 5.8 mph - 0.01 in   Overcast